Auburn, CA

1:40 AM PDT on June 27, 2017 (GMT -0700)
Auburn Municipal

Weather History for KAUN - December, 2011

Change the Weather History Date:

Friday, December 16, 2011

  Actual Average Record
Temperature  
Mean Temperature 48 °F -  
Max Temperature 64 °F 53 °F 74 °F (1958)
Min Temperature 32 °F 36 °F 27 °F (1967)
Degree Days  
Heating Degree Days 17    
Moisture  
Dew Point 32 °F    
Average Humidity 59    
Maximum Humidity 87    
Minimum Humidity 28    
Precipitation  
Precipitation 0.00 in - - ()
Sea Level Pressure  
Sea Level Pressure 30.18 in    
Wind  
Wind Speed 2 mph (NW)    
Max Wind Speed 7 mph    
Max Gust Speed -    
Visibility 10 miles    
Events      
Averages and records for this station are not official NWS values.
T = Trace of Precipitation, MM = Missing Value Source: NWS Daily Summary

Daily Weather History Graph

Daily Weather History Graph

Search for Another Location

Airport or City:

Trip Planner

Search our weather history database for the weather conditions in past years. The results will help you decide how hot, cold, wet, or windy it might be!

Date:

Astronomy

Dec. 16, 2011 Rise Set
Actual Time 7:16 AM PST 4:43 PM PST
Civil Twilight 6:46 AM PST 5:13 PM PST
Nautical Twilight 6:12 AM PST 5:46 PM PST
Astronomical Twilight 5:40 AM PST 6:19 PM PST
Moon 11:19 PM PST (12/16) 11:07 AM PST (12/16)
Length of Visible Light 10h 26m
Length of Day
9h 26m
Waning Gibbous, 63% of the Moon is Illuminated
Dec 16
Waning Gibbous
Dec 17
Last Quarter
Dec 24
New
Dec 31
First Quarter
Jan 8
Full

Hourly Weather History & Observations

Time (PST) Temp. Windchill Dew Point Humidity Pressure Visibility Wind Dir Wind Speed Gust Speed Precip Events Conditions
12:15 AM 42.8 °F 41.1 °F 30.2 °F 61% 30.20 in 10.0 mi ENE 3.5 mph - N/A   Clear
12:55 AM 46.4 °F 45.2 °F 28.4 °F 50% 30.20 in 10.0 mi North 3.5 mph - N/A   Clear
1:15 AM 42.8 °F 40.1 °F 30.2 °F 61% 30.20 in 10.0 mi North 4.6 mph - N/A   Clear
1:35 AM 42.8 °F - 30.2 °F 61% 30.20 in 10.0 mi Calm Calm - N/A   Clear
1:55 AM 39.2 °F 37.0 °F 30.2 °F 70% 30.21 in 10.0 mi ENE 3.5 mph - N/A   Clear
2:15 AM 39.2 °F 37.0 °F 30.2 °F 70% 30.21 in 10.0 mi East 3.5 mph - N/A   Clear
2:35 AM 44.6 °F - 28.4 °F 53% 30.22 in 10.0 mi Calm Calm - N/A   Clear
2:55 AM 42.8 °F 40.1 °F 28.4 °F 57% 30.21 in 10.0 mi ENE 4.6 mph - N/A   Clear
3:15 AM 44.6 °F 43.1 °F 28.4 °F 53% 30.21 in 10.0 mi ENE 3.5 mph - N/A   Clear
3:35 AM 42.8 °F - 28.4 °F 57% 30.21 in 10.0 mi Calm Calm - N/A   Clear
4:15 AM 41.0 °F - 28.4 °F 61% 30.21 in 10.0 mi Calm Calm - N/A   Clear
4:35 AM 37.4 °F - 28.4 °F 70% 30.21 in 10.0 mi Calm Calm - N/A   Clear
4:55 AM 35.6 °F - 28.4 °F 75% 30.21 in 10.0 mi Calm Calm - N/A   Clear
5:15 AM 32.0 °F - 28.4 °F 87% 30.21 in 10.0 mi Calm Calm - N/A   Clear
5:35 AM 33.8 °F - 28.4 °F 81% 30.21 in 10.0 mi Calm Calm - N/A   Clear
5:55 AM 35.6 °F - 28.4 °F 75% 30.22 in 10.0 mi Calm Calm - N/A   Clear
6:35 AM 32.0 °F - 28.4 °F 87% 30.23 in 10.0 mi Calm Calm - N/A   Clear
6:55 AM 39.2 °F - 28.4 °F 65% 30.22 in 10.0 mi North - - N/A   Clear
7:15 AM 37.4 °F 34.9 °F 28.4 °F 70% 30.22 in 10.0 mi NNE 3.5 mph - N/A   Clear
7:35 AM 39.2 °F - 28.4 °F 65% 30.22 in 10.0 mi Calm Calm - N/A   Clear
7:55 AM 39.2 °F - 30.2 °F 70% 30.23 in 10.0 mi Calm Calm - N/A   Clear
8:15 AM 39.2 °F - 30.2 °F 70% 30.24 in 10.0 mi Calm Calm - N/A   Clear
8:35 AM 39.2 °F - 32.0 °F 75% 30.24 in 10.0 mi Calm Calm - N/A   Clear
8:55 AM 41.0 °F - 32.0 °F 70% 30.25 in 10.0 mi Calm Calm - N/A   Clear
9:15 AM 42.8 °F - 32.0 °F 66% 30.25 in 10.0 mi Calm Calm - N/A   Clear
9:35 AM 46.4 °F - 33.8 °F 62% 30.26 in 8.0 mi Calm Calm - N/A   Clear
9:55 AM 48.2 °F - 32.0 °F 54% 30.26 in 10.0 mi Calm Calm - N/A   Clear
10:15 AM 48.2 °F - 33.8 °F 58% 30.26 in 10.0 mi West 3.5 mph - N/A   Clear
10:35 AM 50.0 °F - 33.8 °F 54% 30.25 in 10.0 mi WNW 4.6 mph - N/A   Clear
10:55 AM 51.8 °F - 37.4 °F 58% 30.24 in 10.0 mi Calm Calm - N/A   Clear
11:15 AM 53.6 °F - 39.2 °F 58% 30.23 in 10.0 mi West 4.6 mph - N/A   Clear
11:35 AM 53.6 °F - 39.2 °F 58% 30.22 in 10.0 mi WNW 5.8 mph - N/A   Clear
11:55 AM 53.6 °F - 37.4 °F 54% 30.21 in 10.0 mi WNW 5.8 mph - N/A   Clear
12:15 PM 55.4 °F - 37.4 °F 51% 30.20 in 10.0 mi WNW 6.9 mph - N/A   Clear
12:35 PM 55.4 °F - 37.4 °F 51% 30.20 in 10.0 mi WNW 3.5 mph - N/A   Clear
12:55 PM 55.4 °F - 37.4 °F 51% 30.18 in 10.0 mi NW 5.8 mph - N/A   Clear
1:15 PM 57.2 °F - 37.4 °F 48% 30.17 in 10.0 mi NNW 4.6 mph - N/A   Clear
1:35 PM 59.0 °F - 37.4 °F 45% 30.16 in 10.0 mi NW 3.5 mph - N/A   Clear
1:55 PM 60.8 °F - 37.4 °F 42% 30.15 in 10.0 mi West 4.6 mph - N/A   Clear
2:15 PM 62.6 °F - 35.6 °F 37% 30.15 in 10.0 mi NW 3.5 mph - N/A   Clear
2:35 PM 62.6 °F - 35.6 °F 37% 30.14 in 10.0 mi Calm Calm - N/A   Clear
2:55 PM 64.4 °F - 33.8 °F 32% 30.14 in 10.0 mi WNW 6.9 mph - N/A   Clear
3:15 PM 64.4 °F - 30.2 °F 28% 30.14 in 10.0 mi WNW 5.8 mph - N/A   Clear
3:35 PM 64.4 °F - 30.2 °F 28% 30.13 in 10.0 mi WNW 3.5 mph - N/A   Clear
3:55 PM 62.6 °F - 32.0 °F 32% 30.13 in 10.0 mi WSW 4.6 mph - N/A   Clear
4:15 PM 60.8 °F - 33.8 °F 36% 30.13 in 10.0 mi Calm Calm - N/A   Clear
4:35 PM 57.2 °F - 33.8 °F 41% 30.13 in 10.0 mi Calm Calm - N/A   Clear
4:55 PM 51.8 °F - 33.8 °F 50% 30.12 in 10.0 mi Calm Calm - N/A   Clear
5:15 PM 48.2 °F - 32.0 °F 54% 30.12 in 10.0 mi Calm Calm - N/A   Clear
5:35 PM 46.4 °F - 32.0 °F 57% 30.12 in 10.0 mi Calm Calm - N/A   Clear
5:55 PM 46.4 °F - 32.0 °F 57% 30.12 in 10.0 mi Calm Calm - N/A   Clear
6:15 PM 48.2 °F - 32.0 °F 54% 30.12 in 10.0 mi Calm Calm - N/A   Clear
6:35 PM 48.2 °F - 33.8 °F 58% 30.13 in 10.0 mi Calm Calm - N/A   Clear
6:55 PM 46.4 °F - 32.0 °F 57% 30.12 in 10.0 mi Calm Calm - N/A   Clear
7:15 PM 46.4 °F - 35.6 °F 66% 30.13 in 10.0 mi Calm Calm - N/A   Clear
7:35 PM 44.6 °F - 35.6 °F 71% 30.14 in 10.0 mi Calm Calm - N/A   Clear
7:55 PM 39.2 °F - 35.6 °F 87% 30.14 in 10.0 mi Calm Calm - N/A   Clear
8:15 PM 39.2 °F - 33.8 °F 81% 30.14 in 10.0 mi Calm Calm - N/A   Clear
8:35 PM 39.2 °F 35.9 °F 33.8 °F 81% 30.14 in 10.0 mi East 4.6 mph - N/A   Clear
8:55 PM 44.6 °F - 32.0 °F 61% 30.14 in 10.0 mi Calm Calm - N/A   Clear
9:15 PM 46.4 °F - 30.2 °F 53% 30.13 in 10.0 mi Calm Calm - N/A   Clear
9:35 PM 42.8 °F - 32.0 °F 66% 30.14 in 10.0 mi Calm Calm - N/A   Clear
9:55 PM 41.0 °F - 32.0 °F 70% 30.14 in 10.0 mi Calm Calm - N/A   Clear
10:15 PM 37.4 °F - 32.0 °F 81% 30.14 in 10.0 mi Calm Calm - N/A   Clear
10:35 PM 39.2 °F - 32.0 °F 75% 30.15 in 10.0 mi Calm Calm - N/A   Clear
10:55 PM 39.2 °F - 32.0 °F 75% 30.16 in 10.0 mi Calm Calm - N/A   Clear
11:15 PM 41.0 °F - 32.0 °F 70% 30.16 in 10.0 mi Calm Calm - N/A   Clear
11:35 PM 39.2 °F - 32.0 °F 75% 30.18 in 10.0 mi Calm Calm - N/A   Clear
11:55 PM 35.6 °F - 32.0 °F 87% 30.17 in 10.0 mi Calm Calm - N/A   Clear